Sparta Invitational 2018

Sparta, MI
Hosted by Sparta
Timing/Results Michiana Timing

Sparta Invitational 2018 vs Sparta Invitational 2016

Aggregate Data Points
Difference This Meet That Meet
Overall Athletes +140 1100 960
Overall Average -22.75 23:20.01 23:42.76
1st-10th Place -18.60 16:42.06 17:00.66
1st-25th Place -22.07 16:59.77 17:21.84
1st-50th Place -26.34 17:17.75 17:44.09
1st-100th Place -25.28 17:45.82 18:11.10
Common Athletes -- -- 245
Ran Faster 137 191 54
Ran Season Best -- 2 2
Average Time -1:11.00 22:25.64 23:36.64
Median Time -46.32 21:59.74 22:46.06
Middle 80% Times -1:10.27 22:02.87 23:13.15
Top 10% Times -58.91 17:20.93 18:19.84
Top 25% Times -1:10.43 18:10.04 19:20.47
Top 50% Times -1:12.10 19:24.23 20:36.33
Bottom 50% Times -1:09.33 25:16.11 26:25.44
Bottom 25% Times -1:15.41 27:41.22 28:56.63
Bottom 10% Times -1:27.94 30:40.65 32:08.59
Average Difference -1:11.00 -- --
Median Difference -30.19 -- --
Middle 80% Difference -1:08.96 -- --
Top 10% Difference -42.08 -- --
Top 50% Difference -1:06.02 -- --
Top 25% Difference -1:01.54 -- --
Top 50% Difference -1:06.02 -- --
Bottom 50% Difference -1:15.65 -- --
Bottom 25% Difference -1:31.52 -- --
Bottom 10% Difference -1:57.05 -- --

Performances of Common Athletes
Athlete Team Difference This Meet That Meet
Colten Covington Grant -1:12.23 16:29.53 17:41.76
Seamus Noonan Grand Rapids Track Club -40.02 16:30.29 17:10.31
Tommee Smith Sparta -58.34 16:41.76 17:40.10
Caleb Swart Lowell -1:13.40 16:48.60 18:02.00
Cole Jensen Montague -1:04.81 16:55.14 17:59.95
Brendan Deneen Fruitport -49.92 16:55.62 17:45.54
Jon Wildey Fruitport -3:16.40 16:57.00 20:13.40
Aiden McLaughlin Morley Stanwood -1:08.00 17:03.80 18:11.80
Dilan Sargent Cedar Springs -1:11.69 17:04.31 18:16.00
Micah Vanderkooi Grand Rapids South Christian +11.03 17:30.29 17:19.26
Chase Wilson Sparta -1:15.82 17:21.34 18:37.16
Ethan Oudbier Sparta -52.71 17:22.84 18:15.55
Zakk Hensley Ionia -1:11.69 17:23.34 18:35.03
Lucas Cossar Lowell -2:51.15 17:25.02 20:16.17
Ethan Vink Grand Rapids Covenant Christian -4:51.03 17:25.47 22:16.50
Brendan Volkers Sparta -38.88 17:32.48 18:11.36
Noah Spiece Saranac -1:10.29 17:36.65 18:46.94
Gavin Braciak Cedar Springs -52.33 17:38.10 18:30.43
Calvin Simmet Lowell -2:21.55 17:48.50 20:10.05
Connor Elliott Kentwood Grand River Preparatory -2:12.59 17:49.12 20:01.71
Austin Wilson West Michigan Aviation Academy -1:40.32 17:50.06 19:30.38
Adrian Rodriguez White Cloud -1:57.24 17:50.93 19:48.17
Alex Russo Kent City -2:29.64 17:52.92 20:22.56
Jack Tamlyn West Michigan Aviation Academy -3:59.41 17:53.36 21:52.77
Jaden Gorsh Grandville -2:20.35 17:56.72 20:17.07
Adam Wolffis Montague -2:12.89 17:57.57 20:10.46
Owen Pruim Grand Rapids South Christian -1:25.89 17:58.56 19:24.45
Ian Lee Greenville -1:14.53 17:59.86 19:14.39
Peyton Sharlow Fruitport -40.93 18:04.66 18:45.59
Travis Lubbers Grand Rapids Covenant Christian -36.00 18:05.25 18:41.25
Noah Wheeler Grandville -4:58.11 18:06.49 23:04.60
Anthony Nykamp Grand Rapids South Christian -1:38.51 18:07.77 19:46.28
Max Klein Grand Rapids Catholic Central -46.56 18:08.03 18:54.59
Ethan Wooten Sparta -1:44.38 18:08.62 19:53.00
Jerad Berkenpas Grand Rapids South Christian -33.67 18:17.90 18:51.57
Colin Brown Holland West Ottawa -1:31.88 18:19.25 19:51.13
Ariel Ponce Grand Rapids Union +2:54.15 21:18.31 18:24.16
Austin Bouma Hudsonville Unity Christian +1:10.16 19:37.20 18:27.04
Trevor Minderhoud Grand Rapids Covenant Christian -2:24.47 18:31.85 20:56.32
Everett Smith Rockford -0.52 18:32.65 18:33.17
Isaac Willemsen Byron Center -39.64 18:33.94 19:13.58
Eric Chavarria Wyoming Lee -2:48.12 18:34.98 21:23.10
Owen Kalsbeek Grand Rapids Covenant Christian -1:32.81 18:38.78 20:11.59
Killian Olson Rockford -2:02.61 18:39.41 20:42.02
Lucas Vanderploeg Hudsonville Unity Christian -39.94 18:40.76 19:20.70
Casey Carew Kent City -4.35 18:41.37 18:45.72
Evan Veldkamp Rockford -1:52.37 18:44.16 20:36.53
Nick Flegel Kent City -1:46.36 18:46.30 20:32.66
Thomas Dummer Holland West Ottawa +2:17.13 21:09.65 18:52.52
Nick Brown Ionia -1:25.46 18:53.61 20:19.07
Jayden Kalsbeek Grand Rapids Covenant Christian -1:41.30 18:54.81 20:36.11
David King Grand Rapids Covenant Christian +4.04 19:01.28 18:57.24
Anthony Barnes Allegan -7.76 19:03.79 19:11.55
Julian Abbott Howard City Tri County +2.55 19:09.03 19:06.48
Micah Bouman Greenville -41.69 19:08.18 19:49.87
Kyle Herman Rockford -2:41.82 19:08.96 21:50.78
Connor Vanderwilt Grant -24.85 19:11.89 19:36.74
Lucas Reul Grand Rapids Catholic Central -4:33.51 19:12.79 23:46.30
Mitchell Messer Sparta -3:05.87 19:14.46 22:20.33
Rafael Vega Wyoming Lee -3:35.54 19:16.28 22:51.82
Zach Fagerlin Rockford +3.91 19:21.53 19:17.62
Matthew Weimer Holland West Ottawa -47.06 19:18.35 20:05.41
Chris Stapel Hesperia -1:46.05 19:19.50 21:05.55
Sam Morin Holland West Ottawa -1:52.65 19:19.82 21:12.47
Shane Vaara Holland West Ottawa -5:02.01 19:26.73 24:28.74
Jack Bryan Byron Center -2:23.19 19:28.49 21:51.68
Brett Schuitema Grandville -1:59.20 19:31.32 21:30.52
David Stegehuis Kentwood Grand River Preparatory -1:29.35 19:31.67 21:01.02
Ethan Johnson Grandville +50.90 20:25.41 19:34.51
Ethan Weliver Holland West Ottawa -2:55.39 19:41.20 22:36.59
Andrew Smyk Holland West Ottawa -2:06.84 19:42.64 21:49.48
Ben Gillion West Michigan Aviation Academy -3:15.53 19:47.03 23:02.56
Nolan Westenburg West Michigan Aviation Academy -1:48.56 19:47.79 21:36.35
Lauren Freeland Kent City -46.38 19:49.12 20:35.50
Tyler Bush Holland West Ottawa -41.78 19:49.80 20:31.58
Kyle Sokolowski Sparta -1:16.27 19:50.38 21:06.65
Vincent Kenyon Ionia -9.53 19:50.84 20:00.37
Jack DeLong Muskegon Catholic Central -2:12.01 19:58.28 22:10.29
Cole Kalsbeek Grand Rapids Covenant Christian -1:08.07 20:03.75 21:11.82
Elijah Kauffman Rockford -5:07.01 20:04.99 25:12.00
Daren Moelker Grand Rapids Covenant Christian -1:42.21 20:07.65 21:49.86
Daaron Fleeger Grandville +55.74 21:05.05 20:09.31
Nick Polega Byron Center -2:20.90 20:12.88 22:33.78
Darren Mitchelson Kentwood Grand River Preparatory -13.81 20:15.83 20:29.64
Nick Bale Rockford -1:35.33 20:18.55 21:53.88
Triston Mayton West Michigan Aviation Academy -3:54.42 20:18.58 24:13.00
Ryan Cadwallader Saranac -1:59.75 20:20.62 22:20.37
Logan Smith Grandville -30.58 20:22.06 20:52.64
Faith Clark Fruitport -2:21.58 20:22.87 22:44.45
Jared Wagen Rockford -6:40.11 20:26.27 27:06.38
Adrian Walker Grandville +14.78 20:42.42 20:27.64
Haley Nieuwkoop Lowell -6:22.78 20:30.07 26:52.85
Mason Doorn West Michigan Aviation Academy -19.52 20:33.53 20:53.05
Josh Vandenheuvel Hudsonville Unity Christian -2:05.84 20:37.37 22:43.21
Carson Lemmen Hudsonville Unity Christian +3:00.15 23:37.69 20:37.54
Kathleen Hummer Byron Center -1:29.72 20:38.18 22:07.90
Josh Trierweiler Ionia -1:27.48 20:39.47 22:06.95
Brandon Spronk Grand Rapids Covenant Christian -1:41.28 20:40.87 22:22.15
Ethan Toth Holland West Ottawa -3:41.03 20:41.17 24:22.20
Hunter Grinstern Grand Rapids South Christian -52.50 20:41.73 21:34.23
Logan Levandoski Howard City Tri County -1:33.75 20:43.40 22:17.15
Julianna Wilson West Michigan Aviation Academy -39.27 20:45.09 21:24.36
Oscar Nollette-pat Grand Rapids Union -1:37.02 20:45.25 22:22.27
Kenneth Totengco Howard City Tri County +3.64 20:51.64 20:48.00
Zachary Van Dyke Hudsonville Unity Christian -19.32 20:51.89 21:11.21
Micah Kinde Libertas Christian -3:37.30 20:52.23 24:29.53
Seth Warren Grandville +3:08.68 24:02.68 20:54.00
Michael Simot Fruitport +1:33.86 22:28.48 20:54.62
Audrey Conrad Lowell -2:50.96 20:56.03 23:46.99
Sophie Trudgon Grand Rapids Catholic Central -36.27 20:56.41 21:32.68
Cory Ives Holland West Ottawa -1:38.50 20:57.26 22:35.76
Sara Yob Greenville -39.81 21:04.33 21:44.14
Anna Winkle Grand Rapids South Christian +11.69 21:24.53 21:12.84
Joseph Sheppard Kentwood Grand River Preparatory -1:42.88 21:14.21 22:57.09
Abby Ignasiak Kent City -3:47.86 21:16.86 25:04.72
Jonah Powell Saranac -1:38.03 21:19.33 22:57.36
Clark Oxford Kent City -19.33 21:23.43 21:42.76
Seth Penna Grand Rapids Covenant Christian +2:51.18 24:14.81 21:23.63
Ella Bowman White Cloud +1:06.67 22:30.47 21:23.80
Corbin Ebeling West Village Academy North -37.18 21:30.57 22:07.75
Hunter Milanowski Belding -38.87 21:33.64 22:12.51
Jozlyn Vantol Grand Rapids South Christian +34.01 22:09.41 21:35.40
Emily Goff Grand Rapids Union +1:43.55 23:20.61 21:37.06
Cade Koehler Fruitport -1:40.10 21:39.62 23:19.72
Ryan VanDusen Grand Rapids South Christian +2:40.47 24:22.71 21:42.24
Lauren Aud Lowell +38.14 22:21.65 21:43.51
Megan Velzen Hudsonville Unity Christian -9.64 21:44.99 21:54.63
Cage Porterfield Allegan -1:51.58 21:49.29 23:40.87
Allyson Diebel Ionia +1.13 21:51.19 21:50.06
Thomas Feldpausch White Cloud -5:58.82 21:51.87 27:50.69
Amber Bos Grand Rapids Covenant Christian -33.73 21:52.07 22:25.80
Elizabeth Sible Kent City -2:53.20 21:59.74 24:52.94
Brandon Baker Lowell -22.98 21:59.90 22:22.88
Evan Pohl Holland West Ottawa -3:36.51 22:03.88 25:40.39
Jacob Ballast Grand Rapids South Christian -8.01 22:04.64 22:12.65
David Laduke Holland West Ottawa -30.95 22:05.26 22:36.21
Mikey Beasley Wyoming Lee -3:11.60 22:05.43 25:17.03
Cole Michelli Muskegon Catholic Central -2.88 22:12.28 22:15.16
Eden Vanderweele Grand Rapids South Christian -55.14 22:14.10 23:09.24
Micah Hatfield Ionia -2:22.50 22:15.10 24:37.60
Alexis Haines Lowell -2:34.25 22:16.03 24:50.28
Brad Strouse Saranac -1:41.52 22:26.34 24:07.86
Haiden Kowalewski Grandville -2:08.99 22:28.72 24:37.71
Jamie Berrios Grand Rapids Catholic Central +59.62 23:28.96 22:29.34
Hunter Reed Rockford -5:06.76 22:33.82 27:40.58
Andrea Farias Byron Center -14.98 22:34.49 22:49.47
Sidney Klynstra Saranac -52.73 22:36.87 23:29.60
Connor Sykes Fruitport -1:43.43 22:37.14 24:20.57
Jack Potter West Michigan Aviation Academy +2:07.49 24:46.06 22:38.57
Sophia Ullery Rockford -1:43.02 22:39.09 24:22.11
Zoe Donker Grand Rapids South Christian -30.19 22:41.41 23:11.60
Owen Devereaux Morley Stanwood -56.06 22:42.22 23:38.28
Josh Keillor Byron Center +3:56.47 26:40.21 22:43.74
Sophie Snippe Grand Rapids Covenant Christian +1:03.09 23:48.87 22:45.78
Leah Rau Grand Rapids Covenant Christian +3.86 22:49.91 22:46.05
Emily Rutgers Grand Rapids Covenant Christian +37.22 23:23.28 22:46.06
Madison Town Greenville -14.20 22:52.25 23:06.45
Eli Modderman Byron Center -26.25 22:57.59 23:23.84
Jenna Hoover Sparta +3:44.47 26:42.63 22:58.16
Tyler Vandentop Grand Rapids Covenant Christian -2:08.15 22:59.21 25:07.36
Alejita Rodas-maza Grand Rapids Union +1.92 23:01.35 22:59.43
Evan Berkenpas Rockford -2:39.15 23:02.28 25:41.43
Marlie Fowler Lowell -1:12.54 23:02.71 24:15.25
Haley Foster White Cloud -29.49 23:04.55 23:34.04
Emma Pothoven Grand Rapids South Christian -1:18.49 23:05.00 24:23.49
Kate Langerak Grand Rapids South Christian -2:03.38 23:12.38 25:15.76
Anneke Herzog Hudsonville Unity Christian +1:58.01 25:14.43 23:16.42
Michael Hoekstra Grand Rapids Covenant Christian -28.30 23:20.04 23:48.34
Cassie Stersic Byron Center -14.83 23:28.42 23:43.25
Olivia Lee Byron Center -34.60 23:35.52 24:10.12
Connor LaClair White Cloud -3:35.87 23:36.35 27:12.22
Danielle Bigelow Greenville -2:28.37 23:36.47 26:04.84
Lizzie Cammenga Fruitport Calvary Christian -1:57.42 23:37.31 25:34.73
Carissa Oskam Grand Rapids South Christian -1:57.65 23:40.65 25:38.30
Sydney Ybema Grand Rapids South Christian -2:36.28 23:43.73 26:20.01
Enrique Martinez Wyoming Lee -4:13.92 23:43.96 27:57.88
Ryan Oyama Byron Center -35.95 23:48.84 24:24.79
Austin Anderson Grand Rapids Wellspring Prep +1:39.38 25:32.08 23:52.70
Katie Host Rockford -1:27.52 23:53.30 25:20.82
Rupa Charles Grand Rapids South Christian -1:19.92 23:55.36 25:15.28
Kelly Lubbers Grand Rapids Covenant Christian +4:32.10 28:37.72 24:05.62
Arianne VanUffelen Grand Rapids Covenant Christian -1:34.75 24:09.87 25:44.62
Jaydon Dietrich West Village Academy North -2:41.77 24:13.33 26:55.10
Kyler Bomhof Holland West Ottawa -3:07.96 24:13.94 27:21.90
Jasmine Yonkers Grand Rapids Wellspring Prep -2:29.62 24:14.14 26:43.76
Madelyn O'malley Rockford -1:29.69 24:14.39 25:44.08
Gracie Bearup Grant +20.19 24:41.59 24:21.40
Tyler Ranshaw Fruitport -7:04.24 24:33.79 31:38.03
Kristen Toporski Kent City -1:08.62 24:34.64 25:43.26
Mason Winters Lowell +15.12 24:52.28 24:37.16
Analiza Sanchez Fruitport -2:03.74 24:38.41 26:42.15
Connor Kemmerling Fruitport -1:53.68 24:46.71 26:40.39
Hannah Windemuller Grand Rapids Covenant Christian +1:19.11 26:09.21 24:50.10
Kasey Lee Byron Center +41.64 25:31.85 24:50.21
Abby VanderPloeg Grand Rapids South Christian -2:44.18 24:51.26 27:35.44
Tonya Tepin Cedar Springs -6.39 24:56.58 25:02.97
Zoe Zimmerman Grant -0.46 25:02.40 25:02.86
Hannah Brown White Cloud +9.78 25:12.68 25:02.90
Michael Heindlmeyer Holland West Ottawa -30.24 25:04.45 25:34.69
Maureen Tessmer Byron Center -5:03.81 25:04.92 30:08.73
Aiden Larsen West Village Academy North -3:09.66 25:06.65 28:16.31
Austin Murray Ionia +3.53 25:10.47 25:06.94
Jason Steenwyk Libertas Christian -6:56.88 25:10.58 32:07.46
Kayla Pasch White Cloud -51.46 25:14.06 26:05.52
Austin Shepherdson Wyoming Lee +2.75 25:16.96 25:14.21
Chloe VanTassell Greenville +11.04 25:28.97 25:17.93
Linus Gugino Holland West Ottawa -50.63 25:23.46 26:14.09
Savannah Turner Byron Center -20.77 25:30.33 25:51.10
Jennifer Offringa Grand Rapids South Christian -19.48 25:32.68 25:52.16
Isabel Latvaitis Grand Rapids South Christian -1:09.90 25:39.81 26:49.71
Audrey Kamphuis Grand Rapids NorthPointe Christian -2:01.23 25:42.88 27:44.11
Katie Perry Sparta +1:19.14 27:06.58 25:47.44
Katie Vandyke Grand Rapids South Christian -2:04.61 25:51.10 27:55.71
Annie Schreur Grand Rapids South Christian -1:28.36 25:51.32 27:19.68
Ethan Shoemaker Hudsonville Unity Christian -3:29.53 25:57.08 29:26.61
Emma Gearhart Grand Rapids Union +2:14.25 28:15.80 26:01.55
Ella Tichenor West Michigan Aviation Academy +2:07.91 28:14.09 26:06.18
Brittany Thornton Greenville -2:05.65 26:09.65 28:15.30
Nathan Lowing Fruitport -3:15.49 26:26.36 29:41.85
Sarah Kalsbeek Grand Rapids Covenant Christian +3:04.72 29:36.37 26:31.65
Connor Orr Grand Rapids South Christian +59.93 27:32.92 26:32.99
Katelyn Haskins Saranac -3:45.27 26:37.03 30:22.30
Ashley Bearup Grant +39.48 27:27.04 26:47.56
Chloe Oldenberg Grand Rapids Wellspring Prep -23.72 26:51.80 27:15.52
Megan Spring Muskegon Catholic Central +2:35.54 29:28.99 26:53.45
Clay Davis Kent City -2:42.39 27:07.76 29:50.15
Karissa Kunst Libertas Christian -1:38.12 27:14.66 28:52.78
Annie Walstra Grand Rapids South Christian -49.78 27:20.35 28:10.13
Cara DeWeerd Grand Rapids South Christian -5:58.05 27:24.42 33:22.47
Olivia Heyboer Grand Rapids South Christian -6.13 27:28.35 27:34.48
Thy Nguyen Wyoming Kelloggsville +1:04.45 28:46.57 27:42.12
Sadie Wiegers Grand Rapids NorthPointe Christian +1:15.90 29:09.73 27:53.83
Aliesa Moelker Grand Rapids Covenant Christian -48.16 28:23.97 29:12.13
Sarah Deyoung Grand Rapids South Christian +7:46.07 36:36.28 28:50.21
Jonathan Oyama Byron Center +1:31.87 30:35.57 29:03.70
Elizabeth Feuerstein Belding -7:20.17 29:22.55 36:42.72
Diana Deyoung Byron Center -5:21.14 29:29.29 34:50.43
Alekzandria Taylor White Cloud -1:10.62 29:50.33 31:00.95
Sarah Boersen Libertas Christian -7:23.68 30:58.87 38:22.55
Janae Ash West Michigan Aviation Academy -11.86 31:26.71 31:38.57
Courtney Lobbes Grand Rapids South Christian +1:01.06 32:43.17 31:42.11
Amber Wheeler Byron Center -1:06.01 33:44.52 34:50.53
Novalee Compagnari Howard City Tri County -2:50.93 34:45.89 37:36.82
Carissa Granum Saranac +1:43.17 39:26.87 37:43.70
Tommie Phinney Howard City Tri County -1:38.32 40:09.78 41:48.10